Time,TemperatureF,DewpointF,PressureIn,WindDirection,WindDirectionDegrees,WindSpeedMPH,WindSpeedGustMPH,Humidity,HourlyPrecipIn,Conditions,Clouds,dailyrainin,SolarRadiationWatts/m^2,SoftwareType,DateUTC
2013-03-09 00:01:00,13.0,10.0,-100.00,East,87,1.0,3.0,87,0.00,,,0.00,0.000000,,2013-03-09 05:01:00,
2013-03-09 00:32:00,13.0,10.0,-100.00,East,87,1.0,3.0,87,0.00,,,0.00,0.000000,,2013-03-09 05:32:00,
2013-03-09 00:43:00,13.0,10.0,-100.00,East,87,1.0,3.0,87,0.00,,,0.00,0.000000,,2013-03-09 05:43:00,
2013-03-09 00:53:00,13.0,10.0,-100.00,East,87,1.0,3.0,87,0.00,,,0.00,0.000000,,2013-03-09 05:53:00,
2013-03-09 01:01:00,11.0,8.0,-100.00,ESE,110,2.0,4.0,86,0.00,,,0.00,0.000000,,2013-03-09 06:01:00,
2013-03-09 01:32:00,11.0,8.0,-100.00,ESE,110,2.0,4.0,86,0.00,,,0.00,0.000000,,2013-03-09 06:32:00,
2013-03-09 01:42:00,11.0,8.0,-100.00,ESE,110,2.0,4.0,86,0.00,,,0.00,0.000000,,2013-03-09 06:42:00,
2013-03-09 01:52:00,11.0,8.0,-100.00,ESE,110,2.0,4.0,86,0.00,,,0.00,0.000000,,2013-03-09 06:52:00,
2013-03-09 02:01:00,9.0,5.0,-100.00,ESE,109,1.0,3.0,84,0.00,,,0.00,0.000000,,2013-03-09 07:01:00,
2013-03-09 02:32:00,9.0,5.0,-100.00,ESE,109,1.0,3.0,84,0.00,,,0.00,0.000000,,2013-03-09 07:32:00,
2013-03-09 02:42:00,9.0,5.0,-100.00,ESE,109,1.0,3.0,84,0.00,,,0.00,0.000000,,2013-03-09 07:42:00,
2013-03-09 02:52:00,9.0,5.0,-100.00,ESE,109,1.0,3.0,84,0.00,,,0.00,0.000000,,2013-03-09 07:52:00,
2013-03-09 03:01:00,7.0,3.0,-100.00,ESE,103,2.0,3.0,84,0.00,,,0.00,0.000000,,2013-03-09 08:01:00,
2013-03-09 03:32:00,7.0,3.0,-100.00,ESE,103,2.0,3.0,84,0.00,,,0.00,0.000000,,2013-03-09 08:32:00,
2013-03-09 03:42:00,7.0,3.0,-100.00,ESE,103,2.0,3.0,84,0.00,,,0.00,0.000000,,2013-03-09 08:42:00,
2013-03-09 03:52:00,7.0,3.0,-100.00,ESE,103,2.0,3.0,84,0.00,,,0.00,0.000000,,2013-03-09 08:52:00,
2013-03-09 04:01:00,6.0,2.0,-100.00,ESE,108,1.0,3.0,83,0.00,,,0.00,0.000000,,2013-03-09 09:01:00,
2013-03-09 04:32:00,6.0,2.0,-100.00,ESE,108,1.0,3.0,83,0.00,,,0.00,0.000000,,2013-03-09 09:32:00,
2013-03-09 04:42:00,6.0,2.0,-100.00,ESE,108,1.0,3.0,83,0.00,,,0.00,0.000000,,2013-03-09 09:42:00,
2013-03-09 04:52:00,6.0,2.0,-100.00,ESE,108,1.0,3.0,83,0.00,,,0.00,0.000000,,2013-03-09 09:52:00,
2013-03-09 05:01:00,5.0,1.0,-100.00,ESE,115,1.0,3.0,82,0.00,,,0.00,0.000000,,2013-03-09 10:01:00,
2013-03-09 05:32:00,5.0,1.0,-100.00,ESE,115,1.0,3.0,82,0.00,,,0.00,0.000000,,2013-03-09 10:32:00,
2013-03-09 05:42:00,5.0,1.0,-100.00,ESE,115,1.0,3.0,82,0.00,,,0.00,0.000000,,2013-03-09 10:42:00,
2013-03-09 05:52:00,5.0,1.0,-100.00,ESE,115,1.0,3.0,82,0.00,,,0.00,0.000000,,2013-03-09 10:52:00,
2013-03-09 06:01:00,4.0,-1.0,-100.00,East,101,1.0,3.0,81,0.00,,,0.00,0.000000,,2013-03-09 11:01:00,
2013-03-09 06:22:00,4.0,-1.0,-100.00,East,101,1.0,3.0,81,0.00,,,0.00,0.000000,,2013-03-09 11:22:00,
2013-03-09 06:32:00,4.0,-1.0,-100.00,East,101,1.0,3.0,81,0.00,,,0.00,0.000000,,2013-03-09 11:32:00,
2013-03-09 06:42:00,4.0,-1.0,-100.00,East,101,1.0,3.0,81,0.00,,,0.00,0.000000,,2013-03-09 11:42:00,
2013-03-09 06:52:00,4.0,-1.0,-100.00,East,101,1.0,3.0,81,0.00,,,0.00,0.000000,,2013-03-09 11:52:00,
2013-03-09 07:01:00,5.0,0.0,-100.00,ESE,120,2.0,3.0,81,0.00,,,0.00,9.000000,,2013-03-09 12:01:00,
2013-03-09 07:32:00,5.0,0.0,-100.00,ESE,120,2.0,3.0,81,0.00,,,0.00,9.000000,,2013-03-09 12:32:00,
2013-03-09 07:42:00,5.0,0.0,-100.00,ESE,120,2.0,3.0,81,0.00,,,0.00,9.000000,,2013-03-09 12:42:00,
2013-03-09 07:52:00,5.0,0.0,-100.00,ESE,120,2.0,3.0,81,0.00,,,0.00,9.000000,,2013-03-09 12:52:00,
2013-03-09 08:01:00,18.0,12.0,-100.00,ESE,113,1.0,3.0,78,0.00,,,0.00,150.000000,,2013-03-09 13:01:00,
2013-03-09 08:32:00,18.0,12.0,-100.00,ESE,113,1.0,3.0,78,0.00,,,0.00,150.000000,,2013-03-09 13:32:00,
2013-03-09 08:42:00,18.0,12.0,-100.00,ESE,113,1.0,3.0,78,0.00,,,0.00,150.000000,,2013-03-09 13:42:00,
2013-03-09 08:52:00,18.0,12.0,-100.00,ESE,113,1.0,3.0,78,0.00,,,0.00,150.000000,,2013-03-09 13:52:00,
2013-03-09 09:01:00,37.0,25.0,-100.00,WNW,285,0.0,2.0,62,0.00,,,0.00,357.000000,,2013-03-09 14:01:00,
2013-03-09 09:32:00,37.0,25.0,-100.00,WNW,285,0.0,2.0,62,0.00,,,0.00,357.000000,,2013-03-09 14:32:00,
2013-03-09 09:42:00,37.0,25.0,-100.00,WNW,285,0.0,2.0,62,0.00,,,0.00,357.000000,,2013-03-09 14:42:00,
2013-03-09 09:52:00,37.0,25.0,-100.00,WNW,285,0.0,2.0,62,0.00,,,0.00,357.000000,,2013-03-09 14:52:00,
2013-03-09 10:01:00,41.0,22.0,-100.00,West,265,2.0,4.0,47,0.00,,,0.00,517.000000,,2013-03-09 15:01:00,
2013-03-09 10:32:00,41.0,22.0,-100.00,West,265,2.0,4.0,47,0.00,,,0.00,517.000000,,2013-03-09 15:32:00,
2013-03-09 10:42:00,41.0,22.0,-100.00,West,265,2.0,4.0,47,0.00,,,0.00,517.000000,,2013-03-09 15:42:00,
2013-03-09 10:52:00,41.0,22.0,-100.00,West,265,2.0,4.0,47,0.00,,,0.00,517.000000,,2013-03-09 15:52:00,
2013-03-09 11:01:00,47.0,21.0,-100.00,WSW,255,2.0,6.0,35,0.00,,,0.00,642.000000,,2013-03-09 16:01:00,
2013-03-09 11:32:00,47.0,21.0,-100.00,WSW,255,2.0,6.0,35,0.00,,,0.00,642.000000,,2013-03-09 16:32:00,
2013-03-09 11:42:00,47.0,21.0,-100.00,WSW,255,2.0,6.0,35,0.00,,,0.00,642.000000,,2013-03-09 16:42:00,
2013-03-09 11:52:00,47.0,21.0,-100.00,WSW,255,2.0,6.0,35,0.00,,,0.00,642.000000,,2013-03-09 16:52:00,
2013-03-09 12:01:00,54.0,19.0,-100.00,North,5,1.0,5.0,25,0.00,,,0.00,703.000000,,2013-03-09 17:01:00,
2013-03-09 12:32:00,54.0,19.0,-100.00,North,5,1.0,5.0,25,0.00,,,0.00,703.000000,,2013-03-09 17:32:00,
2013-03-09 12:42:00,54.0,19.0,-100.00,North,5,1.0,5.0,25,0.00,,,0.00,703.000000,,2013-03-09 17:42:00,
2013-03-09 12:52:00,54.0,19.0,-100.00,North,5,1.0,5.0,25,0.00,,,0.00,703.000000,,2013-03-09 17:52:00,
2013-03-09 13:01:00,50.0,14.0,-100.00,NE,42,5.0,11.0,23,0.00,,,0.00,692.000000,,2013-03-09 18:01:00,
2013-03-09 13:32:00,50.0,14.0,-100.00,NE,42,5.0,11.0,23,0.00,,,0.00,692.000000,,2013-03-09 18:32:00,
2013-03-09 13:42:00,50.0,14.0,-100.00,NE,42,5.0,11.0,23,0.00,,,0.00,692.000000,,2013-03-09 18:42:00,
2013-03-09 13:52:00,50.0,14.0,-100.00,NE,42,5.0,11.0,23,0.00,,,0.00,692.000000,,2013-03-09 18:52:00,
2013-03-09 14:01:00,49.0,12.0,-100.00,ENE,61,7.0,10.0,22,0.00,,,0.00,627.000000,,2013-03-09 19:01:00,
2013-03-09 14:32:00,49.0,12.0,-100.00,ENE,61,7.0,10.0,22,0.00,,,0.00,627.000000,,2013-03-09 19:32:00,
2013-03-09 14:42:00,49.0,12.0,-100.00,ENE,61,7.0,10.0,22,0.00,,,0.00,627.000000,,2013-03-09 19:42:00,
2013-03-09 14:52:00,49.0,12.0,-100.00,ENE,61,7.0,10.0,22,0.00,,,0.00,627.000000,,2013-03-09 19:52:00,
2013-03-09 15:01:00,47.0,16.0,-100.00,NE,45,5.0,11.0,28,0.00,,,0.00,437.000000,,2013-03-09 20:01:00,
2013-03-09 15:32:00,47.0,16.0,-100.00,NE,45,5.0,11.0,28,0.00,,,0.00,437.000000,,2013-03-09 20:32:00,
2013-03-09 15:42:00,47.0,16.0,-100.00,NE,45,5.0,11.0,28,0.00,,,0.00,437.000000,,2013-03-09 20:42:00,
2013-03-09 15:52:00,47.0,16.0,-100.00,NE,45,5.0,11.0,28,0.00,,,0.00,437.000000,,2013-03-09 20:52:00,
2013-03-09 16:01:00,47.0,17.0,-100.00,ENE,58,6.0,10.0,30,0.00,,,0.00,114.000000,,2013-03-09 21:01:00,
2013-03-09 16:32:00,47.0,17.0,-100.00,ENE,58,6.0,10.0,30,0.00,,,0.00,114.000000,,2013-03-09 21:32:00,
2013-03-09 16:42:00,47.0,17.0,-100.00,ENE,58,6.0,10.0,30,0.00,,,0.00,114.000000,,2013-03-09 21:42:00,
2013-03-09 16:52:00,47.0,17.0,-100.00,ENE,58,6.0,10.0,30,0.00,,,0.00,114.000000,,2013-03-09 21:52:00,
2013-03-09 17:01:00,44.0,17.0,-100.00,ENE,62,6.0,11.0,34,0.00,,,0.00,195.000000,,2013-03-09 22:01:00,
2013-03-09 17:32:00,44.0,17.0,-100.00,ENE,62,6.0,11.0,34,0.00,,,0.00,195.000000,,2013-03-09 22:32:00,
2013-03-09 17:42:00,44.0,17.0,-100.00,ENE,62,6.0,11.0,34,0.00,,,0.00,195.000000,,2013-03-09 22:42:00,
2013-03-09 17:52:00,44.0,17.0,-100.00,ENE,62,6.0,11.0,34,0.00,,,0.00,195.000000,,2013-03-09 22:52:00,
2013-03-09 18:01:00,36.0,21.0,-100.00,ESE,117,2.0,11.0,53,0.00,,,0.00,25.000000,,2013-03-09 23:01:00,
2013-03-09 18:22:00,36.0,21.0,-100.00,ESE,117,2.0,11.0,53,0.00,,,0.00,25.000000,,2013-03-09 23:22:00,
2013-03-09 18:32:00,36.0,21.0,-100.00,ESE,117,2.0,11.0,53,0.00,,,0.00,25.000000,,2013-03-09 23:32:00,
2013-03-09 18:42:00,36.0,21.0,-100.00,ESE,117,2.0,11.0,53,0.00,,,0.00,25.000000,,2013-03-09 23:42:00,
2013-03-09 18:52:00,36.0,21.0,-100.00,ESE,117,2.0,11.0,53,0.00,,,0.00,25.000000,,2013-03-09 23:52:00,
2013-03-09 19:01:00,31.0,22.0,-100.00,ESE,112,2.0,5.0,70,0.00,,,0.00,0.000000,,2013-03-10 00:01:00,
2013-03-09 19:32:00,31.0,22.0,-100.00,ESE,112,2.0,5.0,70,0.00,,,0.00,0.000000,,2013-03-10 00:32:00,
2013-03-09 19:43:00,31.0,22.0,-100.00,ESE,112,2.0,5.0,70,0.00,,,0.00,0.000000,,2013-03-10 00:43:00,
2013-03-09 19:52:00,31.0,22.0,-100.00,ESE,112,2.0,5.0,70,0.00,,,0.00,0.000000,,2013-03-10 00:52:00,
2013-03-09 20:01:00,31.0,21.0,-100.00,ESE,120,0.0,10.0,67,0.00,,,-99.99,0.000000,,2013-03-10 01:01:00,
2013-03-09 20:22:00,31.0,21.0,-100.00,ESE,120,0.0,10.0,67,0.00,,,-99.99,0.000000,,2013-03-10 01:22:00,
2013-03-09 20:32:00,31.0,21.0,-100.00,ESE,120,0.0,10.0,67,0.00,,,-99.99,0.000000,,2013-03-10 01:32:00,
2013-03-09 20:42:00,31.0,21.0,-100.00,ESE,120,0.0,10.0,67,0.00,,,-99.99,0.000000,,2013-03-10 01:42:00,
2013-03-09 20:52:00,31.0,21.0,-100.00,ESE,120,0.0,10.0,67,0.00,,,-99.99,0.000000,,2013-03-10 01:52:00,
2013-03-09 21:01:00,26.0,22.0,-100.00,East,87,1.0,4.0,83,0.00,,,-99.99,0.000000,,2013-03-10 02:01:00,
2013-03-09 21:32:00,26.0,22.0,-100.00,East,87,1.0,4.0,83,0.00,,,-99.99,0.000000,,2013-03-10 02:32:00,
2013-03-09 21:42:00,26.0,22.0,-100.00,East,87,1.0,4.0,83,0.00,,,-99.99,0.000000,,2013-03-10 02:42:00,
2013-03-09 21:52:00,26.0,22.0,-100.00,East,87,1.0,4.0,83,0.00,,,-99.99,0.000000,,2013-03-10 02:52:00,
2013-03-09 22:01:00,25.0,20.0,-100.00,East,89,1.0,5.0,82,0.00,,,0.00,0.000000,,2013-03-10 03:01:00,
2013-03-09 22:22:00,25.0,20.0,-100.00,East,89,1.0,5.0,82,0.00,,,0.00,0.000000,,2013-03-10 03:22:00,
2013-03-09 22:32:00,25.0,20.0,-100.00,East,89,1.0,5.0,82,0.00,,,0.00,0.000000,,2013-03-10 03:32:00,
2013-03-09 22:42:00,25.0,20.0,-100.00,East,89,1.0,5.0,82,0.00,,,0.00,0.000000,,2013-03-10 03:42:00,
2013-03-09 22:52:00,25.0,20.0,-100.00,East,89,1.0,5.0,82,0.00,,,0.00,0.000000,,2013-03-10 03:52:00,
2013-03-09 23:01:00,23.0,20.0,-100.00,ESE,106,1.0,3.0,87,0.00,,,0.00,0.000000,,2013-03-10 04:01:00,
2013-03-09 23:32:00,23.0,20.0,-100.00,ESE,106,1.0,3.0,87,0.00,,,0.00,0.000000,,2013-03-10 04:32:00,
2013-03-09 23:42:00,23.0,20.0,-100.00,ESE,106,1.0,3.0,87,0.00,,,0.00,0.000000,,2013-03-10 04:42:00,
2013-03-09 23:52:00,23.0,20.0,-100.00,ESE,106,1.0,3.0,87,0.00,,,0.00,0.000000,,2013-03-10 04:52:00,